Voltar ao catálogo

FENGYUN 1C DEB

AtivoSSO
NORAD 37430·DEBRIS·🇨🇳 China

Lançado May 10, 1999 de Taiyuan Satellite Launch Center

Loading…

Próximas Passagens (próximas 24 horas)

TLE

ObsoletoSource: Space-Track

Época: Aug 31, 2026, 16:17 UTC

1 37430U 99025EGY 26243.67911828  .00002422  00000-0  93729-3 0  9994
2 37430  98.7514 324.3541 0017396  28.0460 332.1656 14.30924255654456

Acompanhe FENGYUN 1C DEB em tempo real com AllMySat

Download on the App Store